Location: Olsztyn
(53.7767°N, 20.4765°E)
Time: 19:07:17
(UTC+02:00)

A-11 Canister half - Pass Details

Date: 22 January 2022
Orbit: 1513 x 1686 km, 47.2° (Epoch: 24 May)

Event Time Altitude Azimuth Distance (km) Brightness Sun altitude
Rises 19:25:50 0° 253° (WSW) 4,709 12.5 -29.8°
Reaches altitude 10° 19:28:58 10° 249° (WSW) 3,709 11.7 -30.2°
Maximum altitude 19:38:00 58° 174° (S) 1,729 9.0 -31.6°
Enters shadow 19:38:56 56° 151° (SSE) 1,762 9.0 -31.7°
